Tracking 28790 objects as of 19-Apr-2024
HD Live streaming from Space Station
objects crossing your sky now

SL-14 R/B

Track SL-14 R/B now!
10-day predictions


NORAD ID: 12786
Int'l Code: 1981-082B
Perigee: 607.2 km
Apogee: 629.1 km
Inclination: 82.5 °
Period: 96.9 minutes
Semi major axis: 6989 km
RCS: 3.6609 m2 (large)
Launch date: August 24, 1981
Source: Commonwealth of Independent States (former USSR) (CIS)
Launch site: PLESETSK MISSILE AND SPACE COMPLEX (PKMTR)

Note: This is a ROCKET BODY
Your satellite tracking list
Your tracking list is empty




NASA's NSSDC Master Catalog

Two Line Element Set (TLE):
1 12786U 81082B   24109.54976389  .00001147  00000-0  12889-3 0  9994
2 12786  82.4859 133.0910 0015650 290.1526  69.8006 14.85822817305420
Source of the keplerian elements: AFSPC